Time,TemperatureF,DewpointF,PressureIn,WindDirection,WindDirectionDegrees,WindSpeedMPH,WindSpeedGustMPH,Humidity,HourlyPrecipIn,Conditions,Clouds,dailyrainin,SoftwareType,DateUTC
2013-05-05 00:01:00,40.5,36.3,30.26,NNE,20,0.0,5.0,85,0.00,,,0.00,WUHU216DAVISVP2,2013-05-05 05:01:00,
2013-05-05 00:06:00,40.5,36.3,30.26,NNE,18,2.0,7.0,85,0.00,,,0.00,WUHU216DAVISVP2,2013-05-05 05:06:00,
2013-05-05 00:11:00,40.4,36.2,30.26,NNE,28,0.0,7.0,85,0.00,,,0.00,WUHU216DAVISVP2,2013-05-05 05:11:00,
2013-05-05 00:16:00,40.4,36.2,30.26,NNE,29,0.0,2.0,85,0.00,,,0.00,WUHU216DAVISVP2,2013-05-05 05:16:00,
2013-05-05 00:21:00,40.3,36.4,30.26,NNE,28,0.0,0.0,86,0.00,,,0.00,WUHU216DAVISVP2,2013-05-05 05:21:00,
2013-05-05 00:26:00,40.2,36.3,30.26,NNE,28,0.0,0.0,86,0.00,,,0.00,WUHU216DAVISVP2,2013-05-05 05:26:00,
2013-05-05 00:31:00,40.2,36.3,30.26,NNE,24,1.0,5.0,86,0.00,,,0.00,WUHU216DAVISVP2,2013-05-05 05:31:00,
2013-05-05 00:36:00,40.1,36.2,30.26,NNE,14,2.0,5.0,86,0.00,,,0.00,WUHU216DAVISVP2,2013-05-05 05:36:00,
2013-05-05 00:41:00,40.1,35.9,30.26,North,5,0.0,6.0,85,0.00,,,0.00,WUHU216DAVISVP2,2013-05-05 05:41:00,
2013-05-05 00:46:00,40.0,36.1,30.26,North,5,0.0,6.0,86,0.00,,,0.00,WUHU216DAVISVP2,2013-05-05 05:46:00,
2013-05-05 00:51:00,40.0,36.1,30.26,North,360,0.0,4.0,86,0.00,,,0.00,WUHU216DAVISVP2,2013-05-05 05:51:00,
2013-05-05 00:56:00,40.0,36.1,30.26,North,11,0.0,5.0,86,0.00,,,0.00,WUHU216DAVISVP2,2013-05-05 05:56:00,
2013-05-05 01:01:00,40.0,36.1,30.26,North,10,0.0,5.0,86,0.00,,,0.00,WUHU216DAVISVP2,2013-05-05 06:01:00,
2013-05-05 01:06:00,40.0,36.1,30.26,North,360,0.0,5.0,86,0.00,,,0.00,WUHU216DAVISVP2,2013-05-05 06:06:00,
2013-05-05 01:11:00,39.9,36.0,30.26,North,5,0.0,5.0,86,0.00,,,0.00,WUHU216DAVISVP2,2013-05-05 06:11:00,
2013-05-05 01:16:00,39.9,36.0,30.26,North,5,0.0,0.0,86,0.00,,,0.00,WUHU216DAVISVP2,2013-05-05 06:16:00,
2013-05-05 01:21:00,39.9,36.0,30.26,North,5,0.0,5.0,86,0.00,,,0.00,WUHU216DAVISVP2,2013-05-05 06:21:00,
2013-05-05 01:26:00,39.9,36.3,30.26,North,360,0.0,5.0,87,0.00,,,0.00,WUHU216DAVISVP2,2013-05-05 06:26:00,
2013-05-05 01:31:00,39.8,35.9,30.25,NNE,31,0.0,5.0,86,0.00,,,0.00,WUHU216DAVISVP2,2013-05-05 06:31:00,
2013-05-05 01:36:00,39.7,35.8,30.26,NNE,26,0.0,5.0,86,0.00,,,0.00,WUHU216DAVISVP2,2013-05-05 06:36:00,
2013-05-05 01:41:00,39.7,35.8,30.26,NNE,25,0.0,5.0,86,0.00,,,0.00,WUHU216DAVISVP2,2013-05-05 06:41:00,
2013-05-05 01:46:00,39.7,36.1,30.25,NNE,25,0.0,0.0,87,0.00,,,0.00,WUHU216DAVISVP2,2013-05-05 06:46:00,
2013-05-05 01:51:00,39.6,36.0,30.25,NNE,26,0.0,3.0,87,0.00,,,0.00,WUHU216DAVISVP2,2013-05-05 06:51:00,
2013-05-05 01:56:00,39.7,36.1,30.25,NNE,26,0.0,3.0,87,0.00,,,0.00,WUHU216DAVISVP2,2013-05-05 06:56:00,
2013-05-05 02:01:00,39.6,36.0,30.25,NNE,25,0.0,0.0,87,0.00,,,0.00,WUHU216DAVISVP2,2013-05-05 07:01:00,
2013-05-05 02:06:00,39.6,36.0,30.25,NNE,26,0.0,0.0,87,0.00,,,0.00,WUHU216DAVISVP2,2013-05-05 07:06:00,
2013-05-05 02:11:00,39.6,36.0,30.25,NNE,26,0.0,0.0,87,0.00,,,0.00,WUHU216DAVISVP2,2013-05-05 07:11:00,
2013-05-05 02:16:00,39.5,35.9,30.25,North,11,3.0,6.0,87,0.00,,,0.00,WUHU216DAVISVP2,2013-05-05 07:16:00,
2013-05-05 02:21:00,39.5,35.9,30.25,NNE,13,0.0,6.0,87,0.00,,,0.00,WUHU216DAVISVP2,2013-05-05 07:21:00,
2013-05-05 02:26:00,39.5,35.9,30.25,NNE,13,0.0,3.0,87,0.00,,,0.00,WUHU216DAVISVP2,2013-05-05 07:26:00,
2013-05-05 02:31:00,39.5,35.9,30.24,NNE,13,3.0,4.0,87,0.00,,,0.00,WUHU216DAVISVP2,2013-05-05 07:31:00,
2013-05-05 02:36:00,39.4,35.8,30.24,NNE,13,2.0,5.0,87,0.00,,,0.00,WUHU216DAVISVP2,2013-05-05 07:36:00,
2013-05-05 02:41:00,39.3,35.7,30.24,NNE,14,1.0,5.0,87,0.00,,,0.00,WUHU216DAVISVP2,2013-05-05 07:41:00,
2013-05-05 02:46:00,39.3,35.7,30.24,NNE,15,0.0,5.0,87,0.00,,,0.00,WUHU216DAVISVP2,2013-05-05 07:46:00,
2013-05-05 02:51:00,39.3,35.7,30.24,NNE,14,2.0,3.0,87,0.00,,,0.00,WUHU216DAVISVP2,2013-05-05 07:51:00,
2013-05-05 02:56:00,39.3,35.7,30.24,NNE,15,0.0,3.0,87,0.00,,,0.00,WUHU216DAVISVP2,2013-05-05 07:56:00,
2013-05-05 03:01:00,39.3,35.7,30.24,NNE,15,0.0,2.0,87,0.00,,,0.00,WUHU216DAVISVP2,2013-05-05 08:01:00,
2013-05-05 03:06:00,39.3,35.7,30.24,NNE,15,2.0,4.0,87,0.00,,,0.00,WUHU216DAVISVP2,2013-05-05 08:06:00,
2013-05-05 03:11:00,39.3,35.7,30.24,NNE,15,3.0,4.0,87,0.00,,,0.00,WUHU216DAVISVP2,2013-05-05 08:11:00,
2013-05-05 03:16:00,39.3,35.7,30.24,NNE,14,4.0,5.0,87,0.00,,,0.00,WUHU216DAVISVP2,2013-05-05 08:16:00,
2013-05-05 03:21:00,39.3,35.7,30.24,NNE,15,3.0,5.0,87,0.00,,,0.00,WUHU216DAVISVP2,2013-05-05 08:21:00,
2013-05-05 03:26:00,39.2,35.6,30.24,NNE,14,0.0,5.0,87,0.00,,,0.00,WUHU216DAVISVP2,2013-05-05 08:26:00,
2013-05-05 03:31:00,39.2,35.6,30.24,NNE,15,3.0,5.0,87,0.00,,,0.00,WUHU216DAVISVP2,2013-05-05 08:31:00,
2013-05-05 03:36:00,39.1,35.5,30.24,NNE,15,2.0,5.0,87,0.00,,,0.00,WUHU216DAVISVP2,2013-05-05 08:36:00,
2013-05-05 03:41:00,39.2,35.6,30.24,NNE,15,0.0,5.0,87,0.00,,,0.00,WUHU216DAVISVP2,2013-05-05 08:41:00,
2013-05-05 03:46:00,39.1,35.5,30.24,NNE,15,3.0,4.0,87,0.00,,,0.00,WUHU216DAVISVP2,2013-05-05 08:46:00,
2013-05-05 03:51:00,39.1,35.5,30.24,NNE,15,3.0,4.0,87,0.00,,,0.00,WUHU216DAVISVP2,2013-05-05 08:51:00,
2013-05-05 03:56:00,39.1,35.8,30.24,NNE,15,0.0,5.0,88,0.00,,,0.00,WUHU216DAVISVP2,2013-05-05 08:56:00,
2013-05-05 04:01:00,39.0,35.4,30.24,NNE,15,2.0,5.0,87,0.00,,,0.00,WUHU216DAVISVP2,2013-05-05 09:01:00,
2013-05-05 04:06:00,39.0,35.4,30.24,NNE,15,2.0,5.0,87,0.00,,,0.00,WUHU216DAVISVP2,2013-05-05 09:06:00,
2013-05-05 04:11:00,39.0,35.4,30.24,NNE,15,0.0,4.0,87,0.00,,,0.00,WUHU216DAVISVP2,2013-05-05 09:11:00,
2013-05-05 04:16:00,39.0,35.4,30.24,NNE,15,0.0,4.0,87,0.00,,,0.00,WUHU216DAVISVP2,2013-05-05 09:16:00,
2013-05-05 04:21:00,39.0,35.4,30.24,NNE,14,3.0,5.0,87,0.00,,,0.00,WUHU216DAVISVP2,2013-05-05 09:21:00,
2013-05-05 04:26:00,39.0,35.7,30.24,NNE,15,3.0,6.0,88,0.00,,,0.00,WUHU216DAVISVP2,2013-05-05 09:26:00,
2013-05-05 04:31:00,39.0,35.7,30.24,NNE,15,3.0,6.0,88,0.00,,,0.00,WUHU216DAVISVP2,2013-05-05 09:31:00,
2013-05-05 04:36:00,38.9,35.6,30.24,NNE,15,2.0,5.0,88,0.00,,,0.00,WUHU216DAVISVP2,2013-05-05 09:36:00,
2013-05-05 04:41:00,39.0,35.7,30.24,NNE,15,0.0,4.0,88,0.00,,,0.00,WUHU216DAVISVP2,2013-05-05 09:41:00,
2013-05-05 04:46:00,38.9,35.6,30.24,NNE,15,2.0,4.0,88,0.00,,,0.00,WUHU216DAVISVP2,2013-05-05 09:46:00,
2013-05-05 04:51:00,38.9,35.6,30.24,NNE,15,1.0,4.0,88,0.00,,,0.00,WUHU216DAVISVP2,2013-05-05 09:51:00,
2013-05-05 04:56:00,38.8,35.5,30.24,NNE,15,2.0,6.0,88,0.00,,,0.00,WUHU216DAVISVP2,2013-05-05 09:56:00,
2013-05-05 05:01:00,38.9,35.6,30.24,NNE,15,1.0,6.0,88,0.00,,,0.00,WUHU216DAVISVP2,2013-05-05 10:01:00,
2013-05-05 05:06:00,38.8,35.5,30.24,NNE,15,2.0,5.0,88,0.00,,,0.00,WUHU216DAVISVP2,2013-05-05 10:06:00,
2013-05-05 05:11:00,38.8,35.5,30.24,NNE,15,0.0,3.0,88,0.00,,,0.00,WUHU216DAVISVP2,2013-05-05 10:11:00,
2013-05-05 05:16:00,38.7,35.4,30.24,NNE,15,0.0,3.0,88,0.00,,,0.00,WUHU216DAVISVP2,2013-05-05 10:16:00,
2013-05-05 05:21:00,38.7,35.4,30.24,NNE,15,0.0,3.0,88,0.00,,,0.00,WUHU216DAVISVP2,2013-05-05 10:21:00,
2013-05-05 05:26:00,38.7,35.4,30.24,NNE,15,0.0,0.0,88,0.00,,,0.00,WUHU216DAVISVP2,2013-05-05 10:26:00,
2013-05-05 05:31:00,38.7,35.4,30.24,NNE,15,2.0,6.0,88,0.00,,,0.00,WUHU216DAVISVP2,2013-05-05 10:31:00,
2013-05-05 05:36:00,38.7,35.4,30.24,NNE,15,1.0,6.0,88,0.00,,,0.00,WUHU216DAVISVP2,2013-05-05 10:36:00,
2013-05-05 05:41:00,38.7,35.4,30.24,NNE,15,3.0,5.0,88,0.00,,,0.00,WUHU216DAVISVP2,2013-05-05 10:41:00,
2013-05-05 05:46:00,38.6,35.3,30.24,NNE,15,0.0,5.0,88,0.00,,,0.00,WUHU216DAVISVP2,2013-05-05 10:46:00,
2013-05-05 05:51:00,38.7,35.4,30.24,NNE,15,2.0,4.0,88,0.00,,,0.00,WUHU216DAVISVP2,2013-05-05 10:51:00,
2013-05-05 05:56:00,38.6,35.3,30.24,NNE,15,1.0,7.0,88,0.00,,,0.00,WUHU216DAVISVP2,2013-05-05 10:56:00,
2013-05-05 06:01:00,38.6,35.3,30.24,NNE,15,2.0,7.0,88,0.00,,,0.00,WUHU216DAVISVP2,2013-05-05 11:01:00,
2013-05-05 06:06:00,38.6,35.3,30.24,NNE,14,6.0,6.0,88,0.00,,,0.00,WUHU216DAVISVP2,2013-05-05 11:06:00,
2013-05-05 06:11:00,38.6,35.3,30.24,NNE,14,3.0,6.0,88,0.00,,,0.00,WUHU216DAVISVP2,2013-05-05 11:11:00,
2013-05-05 06:16:00,38.6,35.3,30.24,NNE,14,2.0,6.0,88,0.00,,,0.00,WUHU216DAVISVP2,2013-05-05 11:16:00,
2013-05-05 06:21:00,38.6,35.3,30.24,North,11,1.0,5.0,88,0.00,,,0.00,WUHU216DAVISVP2,2013-05-05 11:21:00,
2013-05-05 06:26:00,38.6,35.3,30.24,NNE,28,5.0,6.0,88,0.00,,,0.00,WUHU216DAVISVP2,2013-05-05 11:26:00,
2013-05-05 06:31:00,38.5,35.2,30.24,NNE,21,3.0,6.0,88,0.00,,,0.00,WUHU216DAVISVP2,2013-05-05 11:31:00,
2013-05-05 06:36:00,38.6,35.3,30.24,NNE,17,3.0,6.0,88,0.00,,,0.00,WUHU216DAVISVP2,2013-05-05 11:36:00,
2013-05-05 06:41:00,38.6,35.3,30.24,NNE,14,2.0,6.0,88,0.00,,,0.00,WUHU216DAVISVP2,2013-05-05 11:41:00,
2013-05-05 06:46:00,38.6,35.3,30.24,North,11,2.0,7.0,88,0.00,,,0.00,WUHU216DAVISVP2,2013-05-05 11:46:00,
2013-05-05 06:51:00,38.6,35.3,30.24,North,9,3.0,7.0,88,0.00,,,0.00,WUHU216DAVISVP2,2013-05-05 11:51:00,
2013-05-05 06:56:00,38.6,35.3,30.24,North,360,3.0,6.0,88,0.00,,,0.00,WUHU216DAVISVP2,2013-05-05 11:56:00,
2013-05-05 07:01:00,38.7,35.4,30.24,NNE,12,2.0,6.0,88,0.00,,,0.00,WUHU216DAVISVP2,2013-05-05 12:01:00,
2013-05-05 07:07:00,38.8,35.5,30.24,NNE,22,5.0,6.0,88,0.00,,,0.00,WUHU216DAVISVP2,2013-05-05 12:07:00,
2013-05-05 07:12:00,38.8,35.5,30.24,NNE,19,2.0,6.0,88,0.00,,,0.00,WUHU216DAVISVP2,2013-05-05 12:12:00,
2013-05-05 07:17:00,38.8,35.5,30.24,NNE,18,3.0,6.0,88,0.00,,,0.00,WUHU216DAVISVP2,2013-05-05 12:17:00,
2013-05-05 07:21:00,38.9,35.6,30.24,NNE,18,3.0,6.0,88,0.00,,,0.00,WUHU216DAVISVP2,2013-05-05 12:21:00,
2013-05-05 07:27:00,38.9,35.6,30.24,NNE,30,0.0,7.0,88,0.00,,,0.00,WUHU216DAVISVP2,2013-05-05 12:27:00,
2013-05-05 07:32:00,38.9,35.6,30.24,NNE,15,2.0,7.0,88,0.00,,,0.00,WUHU216DAVISVP2,2013-05-05 12:32:00,
2013-05-05 07:37:00,39.0,35.7,30.24,NNE,15,0.0,6.0,88,0.00,,,0.00,WUHU216DAVISVP2,2013-05-05 12:37:00,
2013-05-05 07:42:00,39.1,35.8,30.24,NNE,15,0.0,6.0,88,0.00,,,0.00,WUHU216DAVISVP2,2013-05-05 12:42:00,
2013-05-05 07:47:00,39.0,35.7,30.24,North,5,4.0,7.0,88,0.00,,,0.00,WUHU216DAVISVP2,2013-05-05 12:47:00,
2013-05-05 07:52:00,39.1,35.8,30.24,North,5,1.0,7.0,88,0.00,,,0.00,WUHU216DAVISVP2,2013-05-05 12:52:00,
2013-05-05 07:57:00,39.2,35.9,30.24,North,5,2.0,6.0,88,0.00,,,0.00,WUHU216DAVISVP2,2013-05-05 12:57:00,
2013-05-05 08:02:00,39.3,36.0,30.25,NE,39,4.0,7.0,88,0.00,,,0.00,WUHU216DAVISVP2,2013-05-05 13:02:00,
2013-05-05 08:07:00,39.3,35.7,30.25,NNE,18,1.0,7.0,87,0.00,,,0.00,WUHU216DAVISVP2,2013-05-05 13:07:00,
2013-05-05 08:12:00,39.6,36.0,30.25,NNE,18,0.0,7.0,87,0.00,,,0.00,WUHU216DAVISVP2,2013-05-05 13:12:00,
2013-05-05 08:17:00,39.4,35.8,30.24,North,11,4.0,7.0,87,0.00,,,0.00,WUHU216DAVISVP2,2013-05-05 13:17:00,
2013-05-05 08:22:00,39.5,35.9,30.25,NNE,12,0.0,7.0,87,0.00,,,0.00,WUHU216DAVISVP2,2013-05-05 13:22:00,
2013-05-05 08:27:00,39.4,35.8,30.25,North,11,3.0,6.0,87,0.00,,,0.00,WUHU216DAVISVP2,2013-05-05 13:27:00,
2013-05-05 08:32:00,39.5,35.9,30.25,NNE,12,5.0,7.0,87,0.00,,,0.00,WUHU216DAVISVP2,2013-05-05 13:32:00,
2013-05-05 08:37:00,39.6,36.0,30.25,North,5,2.0,7.0,87,0.00,,,0.00,WUHU216DAVISVP2,2013-05-05 13:37:00,
2013-05-05 08:42:00,39.7,35.8,30.25,NNE,18,3.0,7.0,86,0.00,,,0.00,WUHU216DAVISVP2,2013-05-05 13:42:00,
2013-05-05 08:47:00,39.8,35.9,30.25,NNE,27,1.0,7.0,86,0.00,,,0.00,WUHU216DAVISVP2,2013-05-05 13:47:00,
2013-05-05 08:52:00,39.8,35.9,30.25,North,355,0.0,7.0,86,0.00,,,0.00,WUHU216DAVISVP2,2013-05-05 13:52:00,
2013-05-05 08:57:00,39.9,36.0,30.25,North,5,3.0,8.0,86,0.00,,,0.00,WUHU216DAVISVP2,2013-05-05 13:57:00,
2013-05-05 09:02:00,39.9,36.0,30.25,NNE,13,2.0,8.0,86,0.00,,,0.00,WUHU216DAVISVP2,2013-05-05 14:02:00,
2013-05-05 09:07:00,40.0,35.8,30.25,NNE,13,4.0,6.0,85,0.00,,,0.00,WUHU216DAVISVP2,2013-05-05 14:07:00,
2013-05-05 09:12:00,40.0,35.8,30.25,NNE,21,6.0,6.0,85,0.00,,,0.00,WUHU216DAVISVP2,2013-05-05 14:12:00,
2013-05-05 09:17:00,40.3,36.1,30.25,North,10,5.0,7.0,85,0.00,,,0.00,WUHU216DAVISVP2,2013-05-05 14:17:00,
2013-05-05 09:22:00,40.2,35.7,30.25,NE,38,2.0,7.0,84,0.00,,,0.00,WUHU216DAVISVP2,2013-05-05 14:22:00,
2013-05-05 09:27:00,40.3,35.8,30.25,NNE,29,3.0,8.0,84,0.00,,,0.00,WUHU216DAVISVP2,2013-05-05 14:27:00,
2013-05-05 09:32:00,40.6,36.1,30.25,North,9,1.0,8.0,84,0.00,,,0.00,WUHU216DAVISVP2,2013-05-05 14:32:00,
2013-05-05 09:37:00,40.6,36.1,30.25,NNE,17,3.0,11.0,84,0.00,,,0.00,WUHU216DAVISVP2,2013-05-05 14:37:00,
2013-05-05 09:42:00,40.7,36.2,30.25,North,360,1.0,11.0,84,0.00,,,0.00,WUHU216DAVISVP2,2013-05-05 14:42:00,
2013-05-05 09:47:00,40.9,36.1,30.25,NNE,33,1.0,10.0,83,0.00,,,0.00,WUHU216DAVISVP2,2013-05-05 14:47:00,
2013-05-05 09:52:00,41.1,36.3,30.25,North,5,4.0,10.0,83,0.00,,,0.00,WUHU216DAVISVP2,2013-05-05 14:52:00,
2013-05-05 09:57:00,41.8,37.0,30.24,NNE,13,3.0,7.0,83,0.00,,,0.00,WUHU216DAVISVP2,2013-05-05 14:57:00,
2013-05-05 10:02:00,42.0,36.9,30.24,NNE,22,0.0,7.0,82,0.00,,,0.00,WUHU216DAVISVP2,2013-05-05 15:02:00,
2013-05-05 10:07:00,41.8,36.4,30.24,NNE,24,4.0,10.0,81,0.00,,,0.00,WUHU216DAVISVP2,2013-05-05 15:07:00,
2013-05-05 10:12:00,41.8,36.1,30.24,NNE,17,5.0,11.0,80,0.00,,,0.00,WUHU216DAVISVP2,2013-05-05 15:12:00,
2013-05-05 10:17:00,42.3,37.2,30.24,NE,42,2.0,11.0,82,0.00,,,0.00,WUHU216DAVISVP2,2013-05-05 15:17:00,
2013-05-05 10:22:00,42.4,36.7,30.24,NNE,18,4.0,9.0,80,0.00,,,0.00,WUHU216DAVISVP2,2013-05-05 15:22:00,
2013-05-05 10:27:00,42.3,36.3,30.24,North,9,2.0,9.0,79,0.00,,,0.00,WUHU216DAVISVP2,2013-05-05 15:27:00,
2013-05-05 10:32:00,42.4,36.7,30.24,NNE,13,1.0,9.0,80,0.00,,,0.00,WUHU216DAVISVP2,2013-05-05 15:32:00,
2013-05-05 10:37:00,42.6,36.6,30.24,North,10,5.0,9.0,79,0.00,,,0.00,WUHU216DAVISVP2,2013-05-05 15:37:00,
2013-05-05 10:42:00,42.6,36.9,30.24,North,360,0.0,8.0,80,0.00,,,0.00,WUHU216DAVISVP2,2013-05-05 15:42:00,
2013-05-05 10:47:00,42.7,36.7,30.24,North,5,3.0,11.0,79,0.00,,,0.00,WUHU216DAVISVP2,2013-05-05 15:47:00,
2013-05-05 10:52:00,42.7,36.7,30.24,NNE,17,3.0,11.0,79,0.00,,,0.00,WUHU216DAVISVP2,2013-05-05 15:52:00,
2013-05-05 10:57:00,42.9,36.9,30.24,North,5,5.0,10.0,79,0.00,,,0.00,WUHU216DAVISVP2,2013-05-05 15:57:00,
2013-05-05 11:02:00,42.6,36.6,30.24,NNE,24,4.0,10.0,79,0.00,,,0.00,WUHU216DAVISVP2,2013-05-05 16:02:00,
2013-05-05 11:07:00,42.7,36.7,30.24,NNE,18,0.0,10.0,79,0.00,,,0.00,WUHU216DAVISVP2,2013-05-05 16:07:00,
2013-05-05 11:12:00,43.2,37.5,30.24,NNE,24,4.0,10.0,80,0.00,,,0.00,WUHU216DAVISVP2,2013-05-05 16:12:00,
2013-05-05 11:17:00,43.3,37.3,30.24,North,11,3.0,9.0,79,0.00,,,0.00,WUHU216DAVISVP2,2013-05-05 16:17:00,
2013-05-05 11:22:00,43.1,36.7,30.24,NNE,13,0.0,7.0,78,0.00,,,0.00,WUHU216DAVISVP2,2013-05-05 16:22:00,
2013-05-05 11:27:00,43.0,36.6,30.24,NNE,13,0.0,7.0,78,0.00,,,0.00,WUHU216DAVISVP2,2013-05-05 16:27:00,
2013-05-05 11:32:00,43.1,37.1,30.24,NNE,30,0.0,7.0,79,0.00,,,0.00,WUHU216DAVISVP2,2013-05-05 16:32:00,
2013-05-05 11:37:00,43.0,36.6,30.24,NNE,18,0.0,10.0,78,0.00,,,0.00,WUHU216DAVISVP2,2013-05-05 16:37:00,
2013-05-05 11:42:00,43.2,36.8,30.24,North,9,4.0,10.0,78,0.00,,,0.00,WUHU216DAVISVP2,2013-05-05 16:42:00,
2013-05-05 11:47:00,43.4,37.4,30.24,North,360,0.0,9.0,79,0.00,,,0.00,WUHU216DAVISVP2,2013-05-05 16:47:00,
2013-05-05 11:52:00,43.7,37.6,30.23,North,11,2.0,9.0,79,0.00,,,0.00,WUHU216DAVISVP2,2013-05-05 16:52:00,
2013-05-05 11:57:00,43.7,37.0,30.23,NNE,17,5.0,7.0,77,0.00,,,0.00,WUHU216DAVISVP2,2013-05-05 16:57:00,
2013-05-05 12:02:00,43.4,37.0,30.24,NNE,21,2.0,10.0,78,0.00,,,0.00,WUHU216DAVISVP2,2013-05-05 17:02:00,
2013-05-05 12:07:00,43.5,37.1,30.23,NNE,14,6.0,10.0,78,0.00,,,0.00,WUHU216DAVISVP2,2013-05-05 17:07:00,
2013-05-05 12:12:00,43.5,37.1,30.24,North,11,3.0,10.0,78,0.00,,,0.00,WUHU216DAVISVP2,2013-05-05 17:12:00,
2013-05-05 12:17:00,43.8,37.7,30.23,NNE,14,0.0,10.0,79,0.00,,,0.00,WUHU216DAVISVP2,2013-05-05 17:17:00,
2013-05-05 12:22:00,43.9,37.5,30.23,NNE,13,4.0,11.0,78,0.00,,,0.00,WUHU216DAVISVP2,2013-05-05 17:22:00,
2013-05-05 12:27:00,44.0,37.6,30.23,North,11,4.0,11.0,78,0.00,,,0.00,WUHU216DAVISVP2,2013-05-05 17:27:00,
2013-05-05 12:32:00,44.0,37.6,30.23,NNE,24,4.0,9.0,78,0.00,,,0.00,WUHU216DAVISVP2,2013-05-05 17:32:00,
2013-05-05 12:37:00,44.0,37.6,30.23,NNE,17,6.0,9.0,78,0.00,,,0.00,WUHU216DAVISVP2,2013-05-05 17:37:00,
2013-05-05 12:42:00,44.3,37.9,30.23,NE,40,2.0,9.0,78,0.00,,,0.00,WUHU216DAVISVP2,2013-05-05 17:42:00,
2013-05-05 12:47:00,44.5,37.8,30.23,NNE,30,4.0,10.0,77,0.00,,,0.00,WUHU216DAVISVP2,2013-05-05 17:47:00,
2013-05-05 12:52:00,44.6,37.6,30.22,NNW,348,2.0,10.0,76,0.00,,,0.00,WUHU216DAVISVP2,2013-05-05 17:52:00,
2013-05-05 12:57:00,45.0,37.9,30.22,NNE,12,0.0,10.0,76,0.00,,,0.00,WUHU216DAVISVP2,2013-05-05 17:57:00,
2013-05-05 13:02:00,45.0,37.9,30.22,NNE,26,7.0,7.0,76,0.00,,,0.00,WUHU216DAVISVP2,2013-05-05 18:02:00,
2013-05-05 13:07:00,45.0,37.9,30.22,NNE,14,0.0,7.0,76,0.00,,,0.00,WUHU216DAVISVP2,2013-05-05 18:07:00,
2013-05-05 13:12:00,45.0,37.6,30.22,NNE,17,0.0,7.0,75,0.00,,,0.00,WUHU216DAVISVP2,2013-05-05 18:12:00,
2013-05-05 13:17:00,45.2,37.8,30.22,North,5,3.0,7.0,75,0.00,,,0.00,WUHU216DAVISVP2,2013-05-05 18:17:00,
2013-05-05 13:22:00,45.7,38.3,30.22,NNE,26,0.0,7.0,75,0.00,,,0.00,WUHU216DAVISVP2,2013-05-05 18:22:00,
2013-05-05 13:27:00,45.8,38.1,30.22,NNE,16,0.0,6.0,74,0.00,,,0.00,WUHU216DAVISVP2,2013-05-05 18:27:00,
2013-05-05 13:32:00,45.9,38.5,30.22,NNE,15,7.0,7.0,75,0.00,,,0.00,WUHU216DAVISVP2,2013-05-05 18:32:00,
2013-05-05 13:37:00,45.8,38.1,30.22,NNE,19,0.0,7.0,74,0.00,,,0.00,WUHU216DAVISVP2,2013-05-05 18:37:00,
2013-05-05 13:42:00,45.7,38.0,30.21,NNE,14,3.0,7.0,74,0.00,,,0.00,WUHU216DAVISVP2,2013-05-05 18:42:00,
2013-05-05 13:47:00,46.0,38.2,30.21,NE,38,0.0,7.0,74,0.00,,,0.00,WUHU216DAVISVP2,2013-05-05 18:47:00,
2013-05-05 13:52:00,45.9,38.2,30.21,North,10,5.0,8.0,74,0.00,,,0.00,WUHU216DAVISVP2,2013-05-05 18:52:00,
2013-05-05 13:57:00,46.0,38.6,30.21,North,10,0.0,8.0,75,0.00,,,0.00,WUHU216DAVISVP2,2013-05-05 18:57:00,
2013-05-05 14:02:00,46.1,38.3,30.21,ENE,63,0.0,6.0,74,0.00,,,0.00,WUHU216DAVISVP2,2013-05-05 19:02:00,
2013-05-05 14:07:00,46.3,38.9,30.21,ENE,63,0.0,5.0,75,0.00,,,0.00,WUHU216DAVISVP2,2013-05-05 19:07:00,
2013-05-05 14:12:00,46.1,38.0,30.21,North,5,2.0,7.0,73,0.00,,,0.00,WUHU216DAVISVP2,2013-05-05 19:12:00,
2013-05-05 14:17:00,46.1,38.3,30.21,NNE,30,0.0,7.0,74,0.00,,,0.00,WUHU216DAVISVP2,2013-05-05 19:17:00,
2013-05-05 14:22:00,46.4,38.6,30.21,NE,38,0.0,6.0,74,0.00,,,0.00,WUHU216DAVISVP2,2013-05-05 19:22:00,
2013-05-05 14:27:00,46.4,38.6,30.21,NE,36,0.0,6.0,74,0.00,,,0.00,WUHU216DAVISVP2,2013-05-05 19:27:00,
2013-05-05 14:32:00,46.5,38.7,30.21,NE,36,0.0,6.0,74,0.00,,,0.00,WUHU216DAVISVP2,2013-05-05 19:32:00,
2013-05-05 14:37:00,46.6,38.8,30.21,NNE,29,0.0,4.0,74,0.00,,,0.00,WUHU216DAVISVP2,2013-05-05 19:37:00,
2013-05-05 14:42:00,46.5,38.4,30.20,NNE,26,0.0,6.0,73,0.00,,,0.00,WUHU216DAVISVP2,2013-05-05 19:42:00,
2013-05-05 14:47:00,46.7,38.9,30.20,NNE,28,0.0,6.0,74,0.00,,,0.00,WUHU216DAVISVP2,2013-05-05 19:47:00,
2013-05-05 14:52:00,46.8,39.0,30.20,NNE,15,3.0,6.0,74,0.00,,,0.00,WUHU216DAVISVP2,2013-05-05 19:52:00,
2013-05-05 14:57:00,46.7,38.6,30.20,North,11,3.0,6.0,73,0.00,,,0.00,WUHU216DAVISVP2,2013-05-05 19:57:00,
2013-05-05 15:02:00,46.8,39.0,30.20,North,11,0.0,6.0,74,0.00,,,0.00,WUHU216DAVISVP2,2013-05-05 20:02:00,
2013-05-05 15:07:00,47.1,39.3,30.20,North,11,0.0,5.0,74,0.00,,,0.00,WUHU216DAVISVP2,2013-05-05 20:07:00,
2013-05-05 15:12:00,47.1,39.0,30.20,North,360,0.0,8.0,73,0.00,,,0.00,WUHU216DAVISVP2,2013-05-05 20:12:00,
2013-05-05 15:17:00,47.0,39.2,30.20,North,5,0.0,8.0,74,0.00,,,0.00,WUHU216DAVISVP2,2013-05-05 20:17:00,
2013-05-05 15:22:00,47.2,39.1,30.19,North,5,0.0,4.0,73,0.00,,,0.00,WUHU216DAVISVP2,2013-05-05 20:22:00,
2013-05-05 15:27:00,47.5,39.4,30.19,North,5,0.0,4.0,73,0.00,,,0.00,WUHU216DAVISVP2,2013-05-05 20:27:00,
2013-05-05 15:32:00,47.5,39.0,30.19,North,360,0.0,4.0,72,0.00,,,0.00,WUHU216DAVISVP2,2013-05-05 20:32:00,
2013-05-05 15:37:00,47.6,39.5,30.19,North,5,0.0,4.0,73,0.00,,,0.00,WUHU216DAVISVP2,2013-05-05 20:37:00,
2013-05-05 15:42:00,47.8,39.3,30.19,North,5,0.0,3.0,72,0.00,,,0.00,WUHU216DAVISVP2,2013-05-05 20:42:00,
2013-05-05 15:47:00,47.9,39.4,30.19,North,360,0.0,0.0,72,0.00,,,0.00,WUHU216DAVISVP2,2013-05-05 20:47:00,
2013-05-05 15:52:00,47.8,39.6,30.18,North,360,1.0,1.0,73,0.00,,,0.00,WUHU216DAVISVP2,2013-05-05 20:52:00,
2013-05-05 15:57:00,48.0,39.5,30.18,North,5,1.0,1.0,72,0.00,,,0.00,WUHU216DAVISVP2,2013-05-05 20:57:00,
2013-05-05 16:02:00,48.0,39.5,30.18,North,5,3.0,6.0,72,0.00,,,0.00,WUHU216DAVISVP2,2013-05-05 21:02:00,
2013-05-05 16:07:00,48.2,39.7,30.18,North,5,3.0,6.0,72,0.00,,,0.00,WUHU216DAVISVP2,2013-05-05 21:07:00,
2013-05-05 16:12:00,48.4,39.5,30.18,North,355,0.0,6.0,71,0.00,,,0.00,WUHU216DAVISVP2,2013-05-05 21:12:00,
2013-05-05 16:17:00,48.5,39.6,30.18,North,355,2.0,6.0,71,0.00,,,0.00,WUHU216DAVISVP2,2013-05-05 21:17:00,
2013-05-05 16:22:00,48.7,40.2,30.18,North,355,5.0,6.0,72,0.00,,,0.00,WUHU216DAVISVP2,2013-05-05 21:22:00,
2013-05-05 16:27:00,48.5,40.0,30.18,North,355,1.0,6.0,72,0.00,,,0.00,WUHU216DAVISVP2,2013-05-05 21:27:00,
2013-05-05 16:32:00,48.5,40.0,30.17,North,355,0.0,5.0,72,0.00,,,0.00,WUHU216DAVISVP2,2013-05-05 21:32:00,
2013-05-05 16:37:00,48.6,39.7,30.17,North,355,0.0,7.0,71,0.00,,,0.00,WUHU216DAVISVP2,2013-05-05 21:37:00,
2013-05-05 16:42:00,48.8,39.9,30.17,North,355,0.0,7.0,71,0.00,,,0.00,WUHU216DAVISVP2,2013-05-05 21:42:00,
2013-05-05 16:47:00,48.9,40.0,30.17,North,355,0.0,1.0,71,0.00,,,0.00,WUHU216DAVISVP2,2013-05-05 21:47:00,
2013-05-05 16:52:00,49.0,40.1,30.17,North,355,0.0,0.0,71,0.00,,,0.00,WUHU216DAVISVP2,2013-05-05 21:52:00,
2013-05-05 16:57:00,49.2,40.3,30.17,North,360,0.0,7.0,71,0.00,,,0.00,WUHU216DAVISVP2,2013-05-05 21:57:00,
2013-05-05 17:02:00,49.6,40.7,30.17,North,360,0.0,7.0,71,0.00,,,0.00,WUHU216DAVISVP2,2013-05-05 22:02:00,
2013-05-05 17:07:00,50.0,40.7,30.16,North,360,1.0,4.0,70,0.00,,,0.00,WUHU216DAVISVP2,2013-05-05 22:07:00,
2013-05-05 17:12:00,49.5,40.2,30.16,North,360,0.0,5.0,70,0.00,,,0.00,WUHU216DAVISVP2,2013-05-05 22:12:00,
2013-05-05 17:17:00,49.4,40.1,30.16,NNE,14,4.0,9.0,70,0.00,,,0.00,WUHU216DAVISVP2,2013-05-05 22:17:00,
2013-05-05 17:22:00,49.4,40.5,30.16,NNE,14,5.0,9.0,71,0.00,,,0.00,WUHU216DAVISVP2,2013-05-05 22:22:00,
2013-05-05 17:27:00,49.4,40.5,30.16,NNE,12,3.0,6.0,71,0.00,,,0.00,WUHU216DAVISVP2,2013-05-05 22:27:00,
2013-05-05 17:32:00,49.7,40.4,30.16,North,11,5.0,6.0,70,0.00,,,0.00,WUHU216DAVISVP2,2013-05-05 22:32:00,
2013-05-05 17:37:00,49.7,40.8,30.16,NNE,12,0.0,6.0,71,0.00,,,0.00,WUHU216DAVISVP2,2013-05-05 22:37:00,
2013-05-05 17:42:00,49.9,40.6,30.16,North,9,3.0,6.0,70,0.00,,,0.00,WUHU216DAVISVP2,2013-05-05 22:42:00,
2013-05-05 17:47:00,49.4,40.1,30.15,North,9,2.0,6.0,70,0.00,,,0.00,WUHU216DAVISVP2,2013-05-05 22:47:00,
2013-05-05 17:52:00,49.4,40.5,30.15,North,9,0.0,5.0,71,0.00,,,0.00,WUHU216DAVISVP2,2013-05-05 22:52:00,
2013-05-05 17:57:00,49.4,40.5,30.15,North,9,2.0,7.0,71,0.00,,,0.00,WUHU216DAVISVP2,2013-05-05 22:57:00,
2013-05-05 18:02:00,49.3,40.4,30.15,North,9,0.0,7.0,71,0.00,,,0.00,WUHU216DAVISVP2,2013-05-05 23:02:00,
2013-05-05 18:07:00,49.2,40.3,30.15,North,9,0.0,5.0,71,0.00,,,0.00,WUHU216DAVISVP2,2013-05-05 23:07:00,
2013-05-05 18:12:00,49.6,40.7,30.15,North,9,1.0,4.0,71,0.00,,,0.00,WUHU216DAVISVP2,2013-05-05 23:12:00,
2013-05-05 18:17:00,49.7,40.8,30.15,North,9,0.0,3.0,71,0.00,,,0.00,WUHU216DAVISVP2,2013-05-05 23:17:00,
2013-05-05 18:22:00,49.7,40.4,30.15,North,9,0.0,4.0,70,0.00,,,0.00,WUHU216DAVISVP2,2013-05-05 23:22:00,
2013-05-05 18:27:00,49.6,40.7,30.15,North,9,1.0,5.0,71,0.00,,,0.00,WUHU216DAVISVP2,2013-05-05 23:27:00,
2013-05-05 18:32:00,49.7,40.8,30.15,North,9,2.0,5.0,71,0.00,,,0.00,WUHU216DAVISVP2,2013-05-05 23:32:00,
2013-05-05 18:37:00,49.8,40.9,30.14,North,9,0.0,3.0,71,0.00,,,0.00,WUHU216DAVISVP2,2013-05-05 23:37:00,
2013-05-05 18:42:00,50.1,40.8,30.14,North,9,0.0,2.0,70,0.00,,,0.00,WUHU216DAVISVP2,2013-05-05 23:42:00,
2013-05-05 18:47:00,50.2,40.9,30.14,North,9,0.0,0.0,70,0.00,,,0.00,WUHU216DAVISVP2,2013-05-05 23:47:00,
2013-05-05 18:52:00,50.3,41.0,30.14,North,11,3.0,4.0,70,0.00,,,0.00,WUHU216DAVISVP2,2013-05-05 23:52:00,
2013-05-05 18:57:00,50.0,41.1,30.14,North,11,0.0,4.0,71,0.00,,,0.00,WUHU216DAVISVP2,2013-05-05 23:57:00,
2013-05-05 19:02:00,50.2,41.3,30.14,North,11,0.0,4.0,71,0.00,,,0.00,WUHU216DAVISVP2,2013-05-06 00:02:00,
2013-05-05 19:07:00,50.1,41.2,30.14,North,11,0.0,0.0,71,0.00,,,0.00,WUHU216DAVISVP2,2013-05-06 00:07:00,
2013-05-05 19:12:00,50.1,40.8,30.14,North,11,0.0,0.0,70,0.00,,,0.00,WUHU216DAVISVP2,2013-05-06 00:12:00,
2013-05-05 19:17:00,50.1,40.8,30.14,North,11,0.0,0.0,70,0.00,,,0.00,WUHU216DAVISVP2,2013-05-06 00:17:00,
2013-05-05 19:22:00,50.0,41.1,30.14,North,11,0.0,0.0,71,0.00,,,0.00,WUHU216DAVISVP2,2013-05-06 00:22:00,
2013-05-05 19:27:00,49.9,41.0,30.14,North,11,0.0,0.0,71,0.00,,,0.00,WUHU216DAVISVP2,2013-05-06 00:27:00,
2013-05-05 19:32:00,49.8,40.9,30.14,North,11,0.0,0.0,71,0.00,,,0.00,WUHU216DAVISVP2,2013-05-06 00:32:00,
2013-05-05 19:37:00,49.8,40.9,30.14,North,11,0.0,0.0,71,0.00,,,0.00,WUHU216DAVISVP2,2013-05-06 00:37:00,
2013-05-05 19:42:00,49.8,40.9,30.14,North,11,0.0,0.0,71,0.00,,,0.00,WUHU216DAVISVP2,2013-05-06 00:42:00,
2013-05-05 19:47:00,49.7,40.8,30.14,North,11,0.0,0.0,71,0.00,,,0.00,WUHU216DAVISVP2,2013-05-06 00:47:00,
2013-05-05 19:52:00,49.7,40.8,30.14,North,11,0.0,1.0,71,0.00,,,0.00,WUHU216DAVISVP2,2013-05-06 00:52:00,
2013-05-05 19:57:00,49.7,40.8,30.14,North,11,0.0,1.0,71,0.00,,,0.00,WUHU216DAVISVP2,2013-05-06 00:57:00,
2013-05-05 20:02:00,49.6,40.7,30.14,North,11,0.0,0.0,71,0.00,,,0.00,WUHU216DAVISVP2,2013-05-06 01:02:00,
2013-05-05 20:07:00,49.6,41.0,30.14,North,11,0.0,0.0,72,0.00,,,0.00,WUHU216DAVISVP2,2013-05-06 01:07:00,
2013-05-05 20:12:00,49.6,41.0,30.14,North,11,0.0,0.0,72,0.00,,,0.00,WUHU216DAVISVP2,2013-05-06 01:12:00,
2013-05-05 20:17:00,49.6,41.0,30.14,North,11,0.0,0.0,72,0.00,,,0.00,WUHU216DAVISVP2,2013-05-06 01:17:00,
2013-05-05 20:22:00,49.6,41.0,30.14,North,11,0.0,0.0,72,0.00,,,0.00,WUHU216DAVISVP2,2013-05-06 01:22:00,
2013-05-05 20:27:00,49.5,40.9,30.14,North,11,0.0,0.0,72,0.00,,,0.00,WUHU216DAVISVP2,2013-05-06 01:27:00,
2013-05-05 20:32:00,49.4,40.8,30.14,North,11,0.0,0.0,72,0.00,,,0.00,WUHU216DAVISVP2,2013-05-06 01:32:00,
2013-05-05 20:37:00,49.4,40.8,30.14,North,11,0.0,0.0,72,0.00,,,0.00,WUHU216DAVISVP2,2013-05-06 01:37:00,
2013-05-05 20:42:00,49.4,40.8,30.14,North,11,0.0,0.0,72,0.00,,,0.00,WUHU216DAVISVP2,2013-05-06 01:42:00,
2013-05-05 20:47:00,49.4,40.8,30.14,North,11,0.0,0.0,72,0.00,,,0.00,WUHU216DAVISVP2,2013-05-06 01:47:00,
2013-05-05 20:52:00,49.4,40.8,30.14,North,11,0.0,0.0,72,0.00,,,0.00,WUHU216DAVISVP2,2013-05-06 01:52:00,
2013-05-05 20:57:00,49.4,40.8,30.14,North,11,0.0,0.0,72,0.00,,,0.00,WUHU216DAVISVP2,2013-05-06 01:57:00,
2013-05-05 21:02:00,49.3,40.7,30.14,North,11,0.0,0.0,72,0.00,,,0.00,WUHU216DAVISVP2,2013-05-06 02:02:00,
2013-05-05 21:07:00,49.3,40.7,30.14,North,11,0.0,0.0,72,0.00,,,0.00,WUHU216DAVISVP2,2013-05-06 02:07:00,
2013-05-05 21:12:00,49.3,40.7,30.14,North,11,0.0,0.0,72,0.00,,,0.00,WUHU216DAVISVP2,2013-05-06 02:12:00,
2013-05-05 21:17:00,49.2,40.6,30.14,North,11,0.0,0.0,72,0.00,,,0.00,WUHU216DAVISVP2,2013-05-06 02:17:00,
2013-05-05 21:22:00,49.2,40.6,30.14,North,11,0.0,0.0,72,0.00,,,0.00,WUHU216DAVISVP2,2013-05-06 02:22:00,
2013-05-05 21:27:00,49.2,40.6,30.14,North,11,0.0,0.0,72,0.00,,,0.00,WUHU216DAVISVP2,2013-05-06 02:27:00,
2013-05-05 21:32:00,49.2,40.6,30.14,North,11,0.0,0.0,72,0.00,,,0.00,WUHU216DAVISVP2,2013-05-06 02:32:00,
2013-05-05 21:37:00,49.2,40.6,30.14,North,11,0.0,0.0,72,0.00,,,0.00,WUHU216DAVISVP2,2013-05-06 02:37:00,
2013-05-05 21:42:00,49.2,40.6,30.14,North,11,0.0,0.0,72,0.00,,,0.00,WUHU216DAVISVP2,2013-05-06 02:42:00,
2013-05-05 21:47:00,49.2,41.0,30.14,North,11,0.0,0.0,73,0.00,,,0.00,WUHU216DAVISVP2,2013-05-06 02:47:00,
2013-05-05 21:52:00,49.2,40.6,30.14,North,11,0.0,0.0,72,0.00,,,0.00,WUHU216DAVISVP2,2013-05-06 02:52:00,
2013-05-05 21:57:00,49.2,40.6,30.14,North,11,0.0,0.0,72,0.00,,,0.00,WUHU216DAVISVP2,2013-05-06 02:57:00,
2013-05-05 22:02:00,49.2,40.6,30.14,North,11,0.0,0.0,72,0.00,,,0.00,WUHU216DAVISVP2,2013-05-06 03:02:00,
2013-05-05 22:07:00,49.2,40.6,30.14,North,11,0.0,0.0,72,0.00,,,0.00,WUHU216DAVISVP2,2013-05-06 03:07:00,
2013-05-05 22:12:00,49.2,40.6,30.14,North,11,0.0,0.0,72,0.00,,,0.00,WUHU216DAVISVP2,2013-05-06 03:12:00,
2013-05-05 22:17:00,49.2,40.6,30.14,North,11,0.0,0.0,72,0.00,,,0.00,WUHU216DAVISVP2,2013-05-06 03:17:00,
2013-05-05 22:22:00,49.2,41.0,30.14,North,11,0.0,0.0,73,0.00,,,0.00,WUHU216DAVISVP2,2013-05-06 03:22:00,
2013-05-05 22:27:00,49.2,41.0,30.14,North,11,0.0,0.0,73,0.00,,,0.00,WUHU216DAVISVP2,2013-05-06 03:27:00,
2013-05-05 22:32:00,49.2,41.0,30.14,North,11,0.0,0.0,73,0.00,,,0.00,WUHU216DAVISVP2,2013-05-06 03:32:00,
2013-05-05 22:37:00,49.1,40.9,30.13,North,11,0.0,0.0,73,0.00,,,0.00,WUHU216DAVISVP2,2013-05-06 03:37:00,
2013-05-05 22:42:00,49.0,40.8,30.14,North,11,0.0,0.0,73,0.00,,,0.00,WUHU216DAVISVP2,2013-05-06 03:42:00,
2013-05-05 22:47:00,48.9,41.1,30.13,North,11,0.0,0.0,74,0.00,,,0.00,WUHU216DAVISVP2,2013-05-06 03:47:00,
2013-05-05 22:52:00,48.8,41.0,30.13,North,11,0.0,0.0,74,0.00,,,0.00,WUHU216DAVISVP2,2013-05-06 03:52:00,
2013-05-05 22:57:00,48.8,41.0,30.13,North,11,0.0,0.0,74,0.00,,,0.00,WUHU216DAVISVP2,2013-05-06 03:57:00,
2013-05-05 23:01:00,48.7,40.9,30.14,North,11,0.0,0.0,74,0.00,,,0.00,WUHU216DAVISVP2,2013-05-06 04:01:00,
2013-05-05 23:06:00,48.7,40.9,30.13,North,11,0.0,0.0,74,0.00,,,0.00,WUHU216DAVISVP2,2013-05-06 04:06:00,
2013-05-05 23:11:00,48.7,40.9,30.13,North,11,0.0,0.0,74,0.00,,,0.00,WUHU216DAVISVP2,2013-05-06 04:11:00,
2013-05-05 23:16:00,48.6,40.8,30.13,North,11,0.0,0.0,74,0.00,,,0.00,WUHU216DAVISVP2,2013-05-06 04:16:00,
2013-05-05 23:21:00,48.6,41.1,30.14,North,11,0.0,0.0,75,0.00,,,0.00,WUHU216DAVISVP2,2013-05-06 04:21:00,
2013-05-05 23:26:00,48.6,41.1,30.14,North,11,0.0,0.0,75,0.00,,,0.00,WUHU216DAVISVP2,2013-05-06 04:26:00,
2013-05-05 23:31:00,48.6,41.1,30.14,North,11,0.0,0.0,75,0.00,,,0.00,WUHU216DAVISVP2,2013-05-06 04:31:00,
2013-05-05 23:36:00,48.5,41.0,30.14,North,11,0.0,0.0,75,0.00,,,0.00,WUHU216DAVISVP2,2013-05-06 04:36:00,
2013-05-05 23:41:00,48.5,41.0,30.14,North,11,0.0,0.0,75,0.00,,,0.00,WUHU216DAVISVP2,2013-05-06 04:41:00,
2013-05-05 23:46:00,48.5,41.0,30.14,North,11,0.0,0.0,75,0.00,,,0.00,WUHU216DAVISVP2,2013-05-06 04:46:00,
2013-05-05 23:51:00,48.5,41.0,30.14,North,11,0.0,0.0,75,0.00,,,0.00,WUHU216DAVISVP2,2013-05-06 04:51:00,
2013-05-05 23:56:00,48.4,41.2,30.13,North,11,0.0,0.0,76,0.00,,,0.00,WUHU216DAVISVP2,2013-05-06 04:56:00,